Home   Weather   St. Louis   Past weeks

Flag for USA Past Weather in St. Louis, Missouri, USA — Yesterday and Last 2 Weeks

Now
73 °F

Passing clouds.


Feels Like: 71 °F
Forecast: 72 / 85 °F
Wind: 3 mph from Southwest

Location: Lambert-St. Louis International Airport

Current Time: Aug 31, 2016 at 1:35:14 AM

Latest Report: Aug 31, 2016 at 12:51 AM


Visibility: 8 mi

Pressure: 30.06 "Hg

Humidity: 90%

Dew Point: 70 °F

Location of St. LouisLocation

Past Weather in St. Louis — Graph

°F

St. Louis Temperature Yesterday

Maximum temperature yesterday: 91 °F (at 11:51 AM)
Minimum temperature yesterday: 73 °F (at 10:51 PM)
Average temperature yesterday: 79 °F

High & Low Weather Summary for the Past Weeks

 TemperatureHumidityPressure
High95 °F (Aug 28, 2:51 PM)91% (Aug 30, 8:51 PM)30.21 "Hg (Aug 30, 8:51 PM)
Low62 °F (Aug 22, 4:51 AM)34% (Aug 22, 2:51 PM)29.70 "Hg (Aug 20, 4:51 AM)
Average80 °F68%30.02 "Hg
* Reported Aug 15 11:51 PM — Aug 30 11:51 PM, St. Louis, Weather by CustomWeather, © 2016

Note: Actual official high and low records may vary slightly from our data, if they occured in-between our weather recording intervals... More about our weather records

Advertising

St. Louis Weather History for the Previous 24 Hours

Scroll right to see more
 ConditionsComfort  
Time TempWeatherWind HumidityBarometerVisibility
11:51 PM
Tue, Aug 30
74 °FPassing clouds.No wind88%30.05 "Hg8 mi
10:51 PM73 °FPassing clouds.3 mph90%30.05 "Hg7 mi
9:51 PM74 °FPassing clouds.3 mph91%30.06 "Hg7 mi
8:51 PM74 °FPassing clouds.5 mph91%30.04 "Hg7 mi
7:51 PM75 °FFog.6 mph90%30.03 "Hg6 mi
6:51 PM77 °FBroken clouds.No wind85%30.01 "Hg10 mi
5:51 PM75 °FLight rain. Broken clouds.5 mph88%30.04 "Hg8 mi
4:51 PM75 °FLight rain. Mostly cloudy.6 mph90%30.06 "Hg7 mi
3:51 PM75 °FLight rain. Cloudy.6 mph88%30.09 "Hg10 mi
3:04 PM78 °FThunderstorms. Cloudy.6 mph74%30.13 "Hg10 mi
2:51 PM78 °FCloudy.12 mph74%30.09 "Hg10 mi
1:51 PM76 °FThunderstorms. Mostly cloudy.16 mph82%30.10 "Hg8 mi
12:51 PM91 °FPartly sunny.5 mph50%30.06 "Hg10 mi
11:51 AM91 °FBroken clouds.No wind49%30.08 "Hg10 mi
10:51 AM90 °FScattered clouds.5 mph54%30.09 "Hg10 mi
9:51 AM87 °FScattered clouds.3 mph59%30.09 "Hg10 mi
8:51 AM84 °FPassing clouds.3 mph67%30.10 "Hg8 mi
7:51 AM80 °FPassing clouds.3 mph81%30.11 "Hg8 mi
6:51 AM77 °FPassing clouds.No wind85%30.10 "Hg7 mi
5:51 AM78 °FClear.No wind82%30.09 "Hg9 mi
4:51 AM78 °FClear.3 mph82%30.08 "Hg9 mi
3:51 AM78 °FClear.3 mph82%30.08 "Hg9 mi
2:51 AM80 °FClear.No wind76%30.09 "Hg10 mi
1:51 AM79 °FClear.5 mph79%30.10 "Hg10 mi
Weather by CustomWeather, © 2016

See weather overviewHow to use our weather pages